Year,Month,Day,Hour,Minute,Value (Times are PST for temperature in C)
2018,12,07,00,00,-3.60
2018,12,07,00,01,-3.60
2018,12,07,00,02,-3.60
2018,12,07,00,03,-3.60
2018,12,07,00,04,-3.60
2018,12,07,00,05,-3.60
2018,12,07,00,06,-3.60
2018,12,07,00,07,-3.60
2018,12,07,00,08,-3.70
2018,12,07,00,09,-3.70
2018,12,07,00,10,-3.70
2018,12,07,00,11,-3.70
2018,12,07,00,12,-3.70
2018,12,07,00,13,-3.70
2018,12,07,00,14,-3.70
2018,12,07,00,15,-3.70
2018,12,07,00,16,-3.70
2018,12,07,00,17,-3.70
2018,12,07,00,18,-3.70
2018,12,07,00,19,-3.70
2018,12,07,00,20,-3.70
2018,12,07,00,21,-3.70
2018,12,07,00,22,-3.70
2018,12,07,00,23,-3.70
2018,12,07,00,24,-3.70
2018,12,07,00,25,-3.70
2018,12,07,00,26,-3.70
2018,12,07,00,27,-3.70
2018,12,07,00,28,-3.70
2018,12,07,00,29,-3.60
2018,12,07,00,30,-3.60
2018,12,07,00,31,-3.60
2018,12,07,00,32,-3.50
2018,12,07,00,33,-3.40
2018,12,07,00,34,-3.40
2018,12,07,00,35,-3.40
2018,12,07,00,36,-3.40
2018,12,07,00,37,-3.40
2018,12,07,00,38,-3.40
2018,12,07,00,39,-3.50
2018,12,07,00,40,-3.50
2018,12,07,00,41,-3.60
2018,12,07,00,42,-3.60
2018,12,07,00,43,-3.70
2018,12,07,00,44,-3.70
2018,12,07,00,45,-3.70
2018,12,07,00,46,-3.70
2018,12,07,00,47,-3.70
2018,12,07,00,48,-3.70
2018,12,07,00,49,-3.70
2018,12,07,00,50,-3.70
2018,12,07,00,51,-3.70
2018,12,07,00,52,-3.70
2018,12,07,00,53,-3.70
2018,12,07,00,54,-3.70
2018,12,07,00,55,-3.70
2018,12,07,00,56,-3.60
2018,12,07,00,57,-3.60
2018,12,07,00,58,-3.60
2018,12,07,00,59,-3.60
2018,12,07,01,00,-3.60
2018,12,07,01,01,-3.70
2018,12,07,01,02,-3.70
2018,12,07,01,03,-3.70
2018,12,07,01,04,-3.70
2018,12,07,01,05,-3.70
2018,12,07,01,06,-3.70
2018,12,07,01,07,-3.70
2018,12,07,01,08,-3.70
2018,12,07,01,09,-3.70
2018,12,07,01,10,-3.70
2018,12,07,01,11,-3.70
2018,12,07,01,12,-3.70
2018,12,07,01,13,-3.70
2018,12,07,01,14,-3.80
2018,12,07,01,15,-3.80
2018,12,07,01,16,-3.80
2018,12,07,01,17,-3.80
2018,12,07,01,18,-3.70
2018,12,07,01,19,-3.70
2018,12,07,01,20,-3.60
2018,12,07,01,21,-3.60
2018,12,07,01,22,-3.60
2018,12,07,01,23,-3.50
2018,12,07,01,24,-3.50
2018,12,07,01,25,-3.50
2018,12,07,01,26,-3.60
2018,12,07,01,27,-3.60
2018,12,07,01,28,-3.60
2018,12,07,01,29,-3.70
2018,12,07,01,30,-3.70
2018,12,07,01,31,-3.70
2018,12,07,01,32,-3.60
2018,12,07,01,33,-3.60
2018,12,07,01,34,-3.60
2018,12,07,01,35,-3.60
2018,12,07,01,36,-3.60
2018,12,07,01,37,-3.70
2018,12,07,01,38,-3.70
2018,12,07,01,39,-3.70
2018,12,07,01,40,-3.70
2018,12,07,01,41,-3.80
2018,12,07,01,42,-3.80
2018,12,07,01,43,-3.80
2018,12,07,01,44,-3.90
2018,12,07,01,45,-3.90
2018,12,07,01,46,-3.90
2018,12,07,01,47,-4.00
2018,12,07,01,48,-4.00
2018,12,07,01,49,-4.00
2018,12,07,01,50,-4.00
2018,12,07,01,51,-3.90
2018,12,07,01,52,-3.90
2018,12,07,01,53,-3.90
2018,12,07,01,54,-3.90
2018,12,07,01,55,-3.90
2018,12,07,01,56,-3.90
2018,12,07,01,57,-3.90
2018,12,07,01,58,-3.90
2018,12,07,01,59,-3.90
2018,12,07,02,00,-3.90
2018,12,07,02,01,-3.90
2018,12,07,02,02,-3.90
2018,12,07,02,03,-3.90
2018,12,07,02,04,-3.90
2018,12,07,02,05,-3.90
2018,12,07,02,06,-3.90
2018,12,07,02,07,-3.90
2018,12,07,02,08,-3.90
2018,12,07,02,09,-3.90
2018,12,07,02,10,-3.90
2018,12,07,02,11,-3.90
2018,12,07,02,12,-4.00
2018,12,07,02,13,-4.00
2018,12,07,02,14,-4.00
2018,12,07,02,15,-4.00
2018,12,07,02,16,-4.10
2018,12,07,02,17,-4.10
2018,12,07,02,18,-4.10
2018,12,07,02,19,-4.10
2018,12,07,02,20,-4.10
2018,12,07,02,21,-4.10
2018,12,07,02,22,-4.10
2018,12,07,02,23,-4.10
2018,12,07,02,24,-4.10
2018,12,07,02,25,-4.10
2018,12,07,02,26,-4.10
2018,12,07,02,27,-4.10
2018,12,07,02,28,-4.10
2018,12,07,02,29,-4.10
2018,12,07,02,30,-4.10
2018,12,07,02,31,-4.10
2018,12,07,02,32,-4.10
2018,12,07,02,33,-4.00
2018,12,07,02,34,-4.00
2018,12,07,02,35,-4.00
2018,12,07,02,36,-3.90
2018,12,07,02,37,-3.90
2018,12,07,02,38,-3.90
2018,12,07,02,39,-4.00
2018,12,07,02,40,-4.00
2018,12,07,02,41,-4.00
2018,12,07,02,42,-4.10
2018,12,07,02,43,-4.10
2018,12,07,02,44,-4.10
2018,12,07,02,45,-4.10
2018,12,07,02,46,-4.20
2018,12,07,02,47,-4.20
2018,12,07,02,48,-4.20
2018,12,07,02,49,-4.30
2018,12,07,02,50,-4.30
2018,12,07,02,51,-4.30
2018,12,07,02,52,-4.40
2018,12,07,02,53,-4.40
2018,12,07,02,54,-4.40
2018,12,07,02,55,-4.40
2018,12,07,02,56,-4.40
2018,12,07,02,57,-4.40
2018,12,07,02,58,-4.40
2018,12,07,02,59,-4.40
2018,12,07,03,00,-4.40
2018,12,07,03,01,-4.40
2018,12,07,03,02,-4.40
2018,12,07,03,03,-4.40
2018,12,07,03,04,-4.40
2018,12,07,03,05,-4.40
2018,12,07,03,06,-4.30
2018,12,07,03,07,-4.30
2018,12,07,03,08,-4.30
2018,12,07,03,09,-4.30
2018,12,07,03,10,-4.30
2018,12,07,03,11,-4.20
2018,12,07,03,12,-4.20
2018,12,07,03,13,-4.20
2018,12,07,03,14,-4.10
2018,12,07,03,15,-4.10
2018,12,07,03,16,-4.00
2018,12,07,03,17,-4.00
2018,12,07,03,18,-3.90
2018,12,07,03,19,-3.90
2018,12,07,03,20,-3.90
2018,12,07,03,21,-3.90
2018,12,07,03,22,-3.80
2018,12,07,03,23,-3.80
2018,12,07,03,24,-3.90
2018,12,07,03,25,-3.90
2018,12,07,03,26,-3.90
2018,12,07,03,27,-4.00
2018,12,07,03,28,-4.00
2018,12,07,03,29,-4.10
2018,12,07,03,30,-4.10
2018,12,07,03,31,-4.10
2018,12,07,03,32,-4.10
2018,12,07,03,33,-4.20
2018,12,07,03,34,-4.20
2018,12,07,03,35,-4.10
2018,12,07,03,36,-4.10
2018,12,07,03,37,-4.20
2018,12,07,03,38,-4.30
2018,12,07,03,39,-4.30
2018,12,07,03,40,-4.30
2018,12,07,03,41,-4.40
2018,12,07,03,42,-4.40
2018,12,07,03,43,-4.50
2018,12,07,03,44,-4.50
2018,12,07,03,45,-4.50
2018,12,07,03,46,-4.50
2018,12,07,03,47,-4.60
2018,12,07,03,48,-4.60
2018,12,07,03,49,-4.50
2018,12,07,03,50,-4.50
2018,12,07,03,51,-4.50
2018,12,07,03,52,-4.50
2018,12,07,03,53,-4.50
2018,12,07,03,54,-4.50
2018,12,07,03,55,-4.40
2018,12,07,03,56,-4.40
2018,12,07,03,57,-4.40
2018,12,07,03,58,-4.40
2018,12,07,03,59,-4.40
2018,12,07,04,00,-4.40
2018,12,07,04,01,-4.40
2018,12,07,04,02,-4.40
2018,12,07,04,03,-4.40
2018,12,07,04,04,-4.40
2018,12,07,04,05,-4.40
2018,12,07,04,06,-4.30
2018,12,07,04,07,-4.30
2018,12,07,04,08,-4.30
2018,12,07,04,09,-4.40
2018,12,07,04,10,-4.40
2018,12,07,04,11,-4.50
2018,12,07,04,12,-4.60
2018,12,07,04,13,-4.60
2018,12,07,04,14,-4.60
2018,12,07,04,15,-4.60
2018,12,07,04,16,-4.60
2018,12,07,04,17,-4.60
2018,12,07,04,18,-4.60
2018,12,07,04,19,-4.60
2018,12,07,04,20,-4.60
2018,12,07,04,21,-4.60
2018,12,07,04,22,-4.60
2018,12,07,04,23,-4.60
2018,12,07,04,24,-4.60
2018,12,07,04,25,-4.60
2018,12,07,08,40,-2.70
2018,12,07,08,41,-2.70
2018,12,07,08,42,-2.70
2018,12,07,08,43,-2.60
2018,12,07,08,44,-2.60
2018,12,07,08,45,-2.60
2018,12,07,08,46,-2.50
2018,12,07,08,47,-2.40
2018,12,07,08,48,-2.40
2018,12,07,08,49,-2.30
2018,12,07,08,50,-2.20
2018,12,07,08,51,-2.10
2018,12,07,08,52,-2.00
2018,12,07,08,53,-1.90
2018,12,07,08,54,-1.80
2018,12,07,08,55,-1.70
2018,12,07,08,56,-1.60
2018,12,07,08,57,-1.60
2018,12,07,08,58,-1.50
2018,12,07,08,59,-1.40
2018,12,07,09,00,-1.40
2018,12,07,09,01,-1.40
2018,12,07,09,02,-1.40
2018,12,07,09,03,-1.40
2018,12,07,09,04,-1.40
2018,12,07,09,05,-1.30
2018,12,07,09,06,-1.30
2018,12,07,09,07,-1.30
2018,12,07,09,08,-1.20
2018,12,07,09,09,-1.20
2018,12,07,09,10,-1.10
2018,12,07,09,11,-1.10
2018,12,07,09,12,-1.10
2018,12,07,09,13,-1.00
2018,12,07,09,14,-1.00
2018,12,07,09,15,-1.00
2018,12,07,09,16,-0.90
2018,12,07,09,17,-0.90
2018,12,07,09,18,-0.80
2018,12,07,09,19,-0.80
2018,12,07,09,20,-0.70
2018,12,07,09,21,-0.70
2018,12,07,09,22,-0.60
2018,12,07,09,23,-0.50
2018,12,07,09,24,-0.50
2018,12,07,09,25,-0.40
2018,12,07,09,26,-0.40
2018,12,07,09,27,-0.40
2018,12,07,09,28,-0.30
2018,12,07,09,29,-0.30
2018,12,07,09,30,-0.30
2018,12,07,09,31,-0.30
2018,12,07,09,32,-0.30
2018,12,07,09,33,-0.30
2018,12,07,09,34,-0.30
2018,12,07,09,35,-0.30
2018,12,07,09,36,-0.30
2018,12,07,09,37,-0.30
2018,12,07,09,38,-0.30
2018,12,07,09,39,-0.20
2018,12,07,09,40,-0.20
2018,12,07,09,41,-0.10
2018,12,07,09,42,0.00
2018,12,07,09,43,0.10
2018,12,07,09,44,0.20
2018,12,07,09,45,0.30
2018,12,07,09,46,0.40
2018,12,07,09,47,0.60
2018,12,07,09,48,0.70
2018,12,07,09,49,0.80
2018,12,07,09,50,0.90
2018,12,07,09,51,1.00
2018,12,07,09,52,1.10
2018,12,07,09,53,1.20
2018,12,07,09,54,1.30
2018,12,07,09,55,1.40
2018,12,07,09,56,1.50
2018,12,07,09,57,1.60
2018,12,07,09,58,1.70
2018,12,07,09,59,1.80
2018,12,07,10,00,1.90
2018,12,07,10,01,2.00
2018,12,07,10,02,2.00
2018,12,07,10,03,2.10
2018,12,07,10,04,2.20
2018,12,07,10,05,2.20
2018,12,07,10,06,2.30
2018,12,07,10,07,2.30
2018,12,07,10,08,2.40
2018,12,07,10,09,2.40
2018,12,07,10,10,2.40
2018,12,07,10,11,2.50
2018,12,07,10,12,2.50
2018,12,07,10,13,2.50
2018,12,07,10,14,2.50
2018,12,07,10,15,2.60
2018,12,07,10,16,2.60
2018,12,07,10,17,2.60
2018,12,07,10,18,2.60
2018,12,07,10,19,2.70
2018,12,07,10,20,2.70
2018,12,07,10,21,2.70
2018,12,07,10,22,2.70
2018,12,07,10,23,2.70
2018,12,07,10,24,2.70
2018,12,07,10,25,2.70
2018,12,07,10,26,2.70
2018,12,07,10,27,2.70
2018,12,07,10,28,2.70
2018,12,07,10,29,2.80
2018,12,07,10,30,2.80
2018,12,07,10,31,2.80
2018,12,07,10,32,2.80
2018,12,07,10,33,2.80
2018,12,07,10,34,2.80
2018,12,07,10,35,2.80
2018,12,07,10,36,2.80
2018,12,07,10,37,2.90
2018,12,07,10,38,2.90
2018,12,07,10,39,2.90
2018,12,07,10,40,3.00
2018,12,07,10,41,3.00
2018,12,07,10,42,3.10
2018,12,07,10,43,3.10
2018,12,07,10,44,3.10
2018,12,07,10,45,3.20
2018,12,07,10,46,3.20
2018,12,07,10,47,3.20
2018,12,07,10,48,3.20
2018,12,07,10,49,3.30
2018,12,07,10,50,3.30
2018,12,07,10,51,3.30
2018,12,07,10,52,3.30
2018,12,07,10,53,3.40
2018,12,07,10,54,3.40
2018,12,07,10,55,3.40
2018,12,07,10,56,3.40
2018,12,07,10,57,3.40
2018,12,07,10,58,3.50
2018,12,07,10,59,3.50
2018,12,07,11,00,3.50
2018,12,07,11,01,3.50
2018,12,07,11,02,3.50
2018,12,07,11,03,3.50
2018,12,07,11,04,3.50
2018,12,07,11,05,3.50
2018,12,07,11,06,3.50
2018,12,07,11,07,3.50
2018,12,07,11,08,3.60
2018,12,07,11,09,3.60
2018,12,07,11,10,3.60
2018,12,07,11,11,3.50
2018,12,07,11,12,3.50
2018,12,07,11,13,3.50
2018,12,07,11,14,3.50
2018,12,07,11,15,3.50
2018,12,07,11,16,3.50
2018,12,07,11,17,3.60
2018,12,07,11,18,3.60
2018,12,07,11,19,3.60
2018,12,07,11,20,3.60
2018,12,07,11,21,3.60
2018,12,07,11,22,3.60
2018,12,07,11,23,3.60
2018,12,07,11,24,3.60
2018,12,07,11,25,3.60
2018,12,07,11,26,3.60
2018,12,07,11,27,3.50
2018,12,07,11,28,3.50
2018,12,07,11,29,3.50
2018,12,07,11,30,3.50
2018,12,07,11,31,3.50
2018,12,07,11,32,3.50
2018,12,07,11,33,3.40
2018,12,07,11,34,3.40
2018,12,07,11,35,3.40
2018,12,07,11,36,3.40
2018,12,07,11,37,3.40
2018,12,07,11,38,3.40
2018,12,07,11,39,3.50
2018,12,07,11,40,3.50
2018,12,07,11,41,3.50
2018,12,07,11,42,3.60
2018,12,07,11,43,3.60
2018,12,07,11,44,3.60
2018,12,07,11,45,3.60
2018,12,07,11,46,3.70
2018,12,07,11,47,3.70
2018,12,07,11,48,3.70
2018,12,07,11,49,3.70
2018,12,07,11,50,3.70
2018,12,07,11,51,3.70
2018,12,07,11,52,3.80
2018,12,07,11,53,3.80
2018,12,07,11,54,3.80
2018,12,07,11,55,3.80
2018,12,07,11,56,3.80
2018,12,07,11,57,3.80
2018,12,07,11,58,3.80
2018,12,07,11,59,3.80
2018,12,07,12,00,3.80
2018,12,07,12,01,3.80
2018,12,07,12,02,3.80
2018,12,07,12,03,3.80
2018,12,07,12,04,3.80
2018,12,07,12,05,3.80
2018,12,07,12,06,3.80
2018,12,07,12,07,3.80
2018,12,07,12,08,3.80
2018,12,07,12,09,3.90
2018,12,07,12,10,3.90
2018,12,07,12,11,3.80
2018,12,07,12,12,3.80
2018,12,07,12,13,3.80
2018,12,07,12,14,3.80
2018,12,07,12,15,3.90
2018,12,07,12,16,3.90
2018,12,07,12,17,3.90
2018,12,07,12,18,3.90
2018,12,07,12,19,3.90
2018,12,07,12,20,3.90
2018,12,07,12,21,3.90
2018,12,07,12,22,3.90
2018,12,07,12,23,3.90
2018,12,07,12,24,3.90
2018,12,07,12,25,3.90
2018,12,07,12,26,3.90
2018,12,07,12,27,3.90
2018,12,07,12,28,3.90
2018,12,07,12,29,3.90
2018,12,07,12,30,3.90
2018,12,07,12,31,4.00
2018,12,07,12,32,4.00
2018,12,07,12,33,4.00
2018,12,07,12,34,4.00
2018,12,07,12,35,4.00
2018,12,07,12,36,4.00
2018,12,07,12,37,3.90
2018,12,07,12,38,3.90
2018,12,07,12,39,3.90
2018,12,07,12,40,3.90
2018,12,07,12,41,4.00
2018,12,07,12,42,4.00
2018,12,07,12,43,4.00
2018,12,07,12,44,4.10
2018,12,07,12,45,4.10
2018,12,07,12,46,4.10
2018,12,07,12,47,4.10
2018,12,07,12,48,4.10
2018,12,07,12,49,4.10
2018,12,07,12,50,4.10
2018,12,07,12,51,4.10
2018,12,07,12,52,4.10
2018,12,07,12,53,4.10
2018,12,07,12,54,4.20
2018,12,07,12,55,4.20
2018,12,07,12,56,4.20
2018,12,07,12,57,4.20
2018,12,07,12,58,4.20
2018,12,07,12,59,4.20
2018,12,07,13,00,4.20
2018,12,07,13,01,4.20
2018,12,07,13,02,4.20
2018,12,07,13,03,4.20
2018,12,07,13,04,4.30
2018,12,07,13,05,4.30
2018,12,07,13,06,4.30
2018,12,07,13,07,4.30
2018,12,07,13,08,4.30
2018,12,07,13,09,4.30
2018,12,07,13,10,4.30
2018,12,07,13,11,4.30
2018,12,07,13,12,4.30
2018,12,07,13,13,4.30
2018,12,07,13,14,4.30
2018,12,07,13,15,4.30
2018,12,07,13,16,4.30
2018,12,07,13,17,4.40
2018,12,07,13,18,4.40
2018,12,07,13,19,4.40
2018,12,07,13,20,4.40
2018,12,07,13,21,4.40
2018,12,07,13,22,4.40
2018,12,07,13,23,4.40
2018,12,07,13,24,4.40
2018,12,07,13,25,4.40
2018,12,07,13,26,4.40
2018,12,07,13,27,4.40
2018,12,07,13,28,4.50
2018,12,07,13,29,4.50
2018,12,07,13,30,4.50
2018,12,07,13,31,4.50
2018,12,07,13,32,4.50
2018,12,07,13,33,4.50
2018,12,07,13,34,4.50
2018,12,07,13,35,4.60
2018,12,07,13,36,4.60
2018,12,07,13,37,4.60
2018,12,07,13,38,4.60
2018,12,07,13,39,4.60
2018,12,07,13,40,4.60
2018,12,07,13,41,4.60
2018,12,07,13,42,4.60
2018,12,07,13,43,4.60
2018,12,07,13,44,4.60
2018,12,07,13,45,4.60
2018,12,07,13,46,4.60
2018,12,07,13,47,4.60
2018,12,07,13,48,4.60
2018,12,07,13,49,4.60
2018,12,07,13,50,4.70
2018,12,07,13,51,4.70
2018,12,07,13,52,4.60
2018,12,07,13,53,4.60
2018,12,07,13,54,4.70
2018,12,07,13,55,4.60
2018,12,07,13,56,4.60
2018,12,07,13,57,4.60
2018,12,07,13,58,4.60
2018,12,07,13,59,4.60
2018,12,07,14,00,4.60
2018,12,07,14,01,4.60
2018,12,07,14,02,4.60
2018,12,07,14,03,4.60
2018,12,07,14,04,4.60
2018,12,07,14,05,4.60
2018,12,07,14,06,4.60
2018,12,07,14,07,4.60
2018,12,07,14,08,4.60
2018,12,07,14,09,4.60
2018,12,07,14,10,4.50
2018,12,07,14,11,4.50
2018,12,07,14,12,4.50
2018,12,07,14,13,4.50
2018,12,07,14,14,4.50
2018,12,07,14,15,4.40
2018,12,07,14,16,4.40
2018,12,07,14,17,4.40
2018,12,07,14,18,4.40
2018,12,07,14,19,4.40
2018,12,07,14,20,4.40
2018,12,07,14,21,4.40
2018,12,07,14,22,4.40
2018,12,07,14,23,4.40
2018,12,07,14,24,4.40
2018,12,07,14,25,4.40
2018,12,07,14,26,4.40
2018,12,07,14,27,4.40
2018,12,07,14,28,4.40
2018,12,07,14,29,4.40
2018,12,07,14,30,4.40
2018,12,07,14,31,4.40
2018,12,07,14,32,4.40
2018,12,07,14,33,4.40
2018,12,07,14,34,4.40
2018,12,07,14,35,4.40
2018,12,07,14,36,4.40
2018,12,07,14,37,4.40
2018,12,07,14,38,4.40
2018,12,07,14,39,4.30
2018,12,07,14,40,4.30
2018,12,07,14,41,4.30
2018,12,07,14,42,4.30
2018,12,07,14,43,4.30
2018,12,07,14,44,4.30
2018,12,07,14,45,4.30
2018,12,07,14,46,4.20
2018,12,07,14,47,4.20
2018,12,07,14,48,4.20
2018,12,07,14,49,4.20
2018,12,07,14,50,4.20
2018,12,07,14,51,4.20
2018,12,07,14,52,4.20
2018,12,07,14,53,4.10
2018,12,07,14,54,4.10
2018,12,07,14,55,4.10
2018,12,07,14,56,4.10
2018,12,07,14,57,4.00
2018,12,07,14,58,4.00
2018,12,07,14,59,4.00
2018,12,07,15,00,3.90
2018,12,07,15,01,3.90
2018,12,07,15,02,3.90
2018,12,07,15,03,3.90
2018,12,07,15,04,3.90
2018,12,07,15,05,3.80
2018,12,07,15,06,3.80
2018,12,07,15,07,3.80
2018,12,07,15,08,3.80
2018,12,07,15,09,3.80
2018,12,07,15,10,3.80
2018,12,07,15,11,3.80
2018,12,07,15,12,3.70
2018,12,07,15,13,3.70
2018,12,07,15,14,3.70
2018,12,07,15,15,3.70
2018,12,07,15,16,3.70
2018,12,07,15,17,3.70
2018,12,07,15,18,3.60
2018,12,07,15,19,3.60
2018,12,07,15,20,3.60
2018,12,07,15,21,3.60
2018,12,07,15,22,3.60
2018,12,07,15,23,3.60
2018,12,07,15,24,3.60
2018,12,07,15,25,3.50
2018,12,07,15,26,3.50
2018,12,07,15,27,3.50
2018,12,07,15,28,3.40
2018,12,07,15,29,3.40
2018,12,07,15,30,3.40
2018,12,07,15,31,3.40
2018,12,07,15,32,3.40
2018,12,07,15,33,3.30
2018,12,07,15,34,3.30
2018,12,07,15,35,3.30
2018,12,07,15,36,3.30
2018,12,07,15,37,3.30
2018,12,07,15,38,3.20
2018,12,07,15,39,3.20
2018,12,07,15,40,3.20
2018,12,07,15,41,3.20
2018,12,07,15,42,3.20
2018,12,07,15,43,3.10
2018,12,07,15,44,3.10
2018,12,07,15,45,3.10
2018,12,07,15,46,3.10
2018,12,07,15,47,3.10
2018,12,07,15,48,3.10
2018,12,07,15,49,3.10
2018,12,07,15,50,3.00
2018,12,07,15,51,3.00
2018,12,07,15,52,3.00
2018,12,07,15,53,2.90
2018,12,07,15,54,2.90
2018,12,07,15,55,2.90
2018,12,07,15,56,2.90
2018,12,07,15,57,2.90
2018,12,07,15,58,2.90
2018,12,07,15,59,2.90
2018,12,07,16,00,2.80
2018,12,07,16,01,2.80
2018,12,07,16,02,2.80
2018,12,07,16,03,2.80
2018,12,07,16,04,2.80
2018,12,07,16,05,2.70
2018,12,07,16,06,2.70
2018,12,07,16,07,2.70
2018,12,07,16,08,2.70
2018,12,07,16,09,2.60
2018,12,07,16,10,2.60
2018,12,07,16,11,2.60
2018,12,07,16,12,2.50
2018,12,07,16,13,2.50
2018,12,07,16,14,2.50
2018,12,07,16,15,2.40
2018,12,07,16,16,2.40
2018,12,07,16,17,2.40
2018,12,07,16,18,2.30
2018,12,07,16,19,2.30
2018,12,07,16,20,2.30
2018,12,07,16,21,2.30
2018,12,07,16,22,2.30
2018,12,07,16,23,2.20
2018,12,07,16,24,2.20
2018,12,07,16,25,2.20
2018,12,07,16,26,2.20
2018,12,07,16,27,2.20
2018,12,07,16,28,2.10
2018,12,07,16,29,2.10
2018,12,07,16,30,2.10
2018,12,07,16,31,2.10
2018,12,07,16,32,2.10
2018,12,07,16,33,2.10
2018,12,07,16,34,2.10
2018,12,07,16,35,2.00
2018,12,07,16,36,2.00
2018,12,07,16,37,2.00
2018,12,07,16,38,2.00
2018,12,07,16,39,2.00
2018,12,07,16,40,2.00
2018,12,07,16,41,2.00
2018,12,07,16,42,2.00
2018,12,07,16,43,1.90
2018,12,07,16,44,1.90
2018,12,07,16,45,1.90
2018,12,07,16,46,1.90
2018,12,07,16,47,1.90
2018,12,07,16,48,1.90
2018,12,07,16,49,1.90
2018,12,07,16,50,1.90
2018,12,07,16,51,1.80
2018,12,07,16,52,1.80
2018,12,07,16,53,1.80
2018,12,07,16,54,1.80
2018,12,07,16,55,1.80
2018,12,07,16,56,1.80
2018,12,07,16,57,1.70
2018,12,07,16,58,1.70
2018,12,07,16,59,1.70
2018,12,07,17,00,1.70
2018,12,07,17,01,1.60
2018,12,07,17,02,1.60
2018,12,07,17,03,1.60
2018,12,07,17,04,1.60
2018,12,07,17,05,1.60
2018,12,07,17,06,1.60
2018,12,07,17,07,1.60
2018,12,07,17,08,1.60
2018,12,07,17,09,1.60
2018,12,07,17,10,1.60
2018,12,07,17,11,1.50
2018,12,07,17,12,1.50
2018,12,07,17,13,1.50
2018,12,07,17,14,1.50
2018,12,07,17,15,1.40
2018,12,07,17,16,1.40
2018,12,07,17,17,1.40
2018,12,07,17,18,1.40
2018,12,07,17,19,1.40
2018,12,07,17,20,1.40
2018,12,07,17,21,1.30
2018,12,07,17,22,1.30
2018,12,07,17,23,1.30
2018,12,07,17,24,1.30
2018,12,07,17,25,1.30
2018,12,07,17,26,1.30
2018,12,07,17,27,1.30
2018,12,07,17,28,1.30
2018,12,07,17,29,1.30
2018,12,07,17,30,1.30
2018,12,07,17,31,1.30
2018,12,07,17,32,1.30
2018,12,07,17,33,1.30
2018,12,07,17,34,1.20
2018,12,07,17,35,1.20
2018,12,07,17,36,1.20
2018,12,07,17,37,1.20
2018,12,07,17,38,1.20
2018,12,07,17,39,1.20
2018,12,07,17,40,1.20
2018,12,07,17,41,1.20
2018,12,07,17,42,1.20
2018,12,07,17,43,1.20
2018,12,07,17,44,1.20
2018,12,07,17,45,1.20
2018,12,07,17,46,1.20
2018,12,07,17,47,1.20
2018,12,07,17,48,1.20
2018,12,07,17,49,1.20
2018,12,07,17,50,1.20
2018,12,07,17,51,1.20
2018,12,07,17,52,1.20
2018,12,07,17,53,1.20
2018,12,07,17,54,1.20
2018,12,07,17,55,1.20
2018,12,07,17,56,1.20
2018,12,07,17,57,1.30
2018,12,07,17,58,1.30
2018,12,07,17,59,1.30
2018,12,07,18,00,1.30
2018,12,07,18,01,1.30
2018,12,07,18,02,1.30
2018,12,07,18,03,1.30
2018,12,07,18,04,1.30
2018,12,07,18,05,1.30
2018,12,07,18,06,1.30
2018,12,07,18,07,1.30
2018,12,07,18,08,1.30
2018,12,07,18,09,1.30
2018,12,07,18,10,1.30
2018,12,07,18,11,1.30
2018,12,07,18,12,1.30
2018,12,07,18,13,1.30
2018,12,07,18,14,1.30
2018,12,07,18,15,1.40
2018,12,07,18,16,1.40
2018,12,07,18,17,1.50
2018,12,07,18,18,1.60
2018,12,07,18,19,1.70
2018,12,07,18,20,1.70
2018,12,07,18,21,1.80
2018,12,07,18,22,1.90
2018,12,07,18,23,1.90
2018,12,07,18,24,1.90
2018,12,07,18,25,1.90
2018,12,07,18,26,1.90
2018,12,07,18,27,1.80
2018,12,07,18,28,1.80
2018,12,07,18,29,1.80
2018,12,07,18,30,1.70
2018,12,07,18,31,1.70
2018,12,07,18,32,1.60
2018,12,07,18,33,1.60
2018,12,07,18,34,1.60
2018,12,07,18,35,1.50
2018,12,07,18,36,1.50
2018,12,07,18,37,1.40
2018,12,07,18,38,1.30
2018,12,07,18,39,1.30
2018,12,07,18,40,1.30
2018,12,07,18,41,1.30
2018,12,07,18,42,1.20
2018,12,07,18,43,1.20
2018,12,07,18,44,1.20
2018,12,07,18,45,1.20
2018,12,07,18,46,1.20
2018,12,07,18,47,1.10
2018,12,07,18,48,1.10
2018,12,07,18,49,1.10
2018,12,07,18,50,1.10
2018,12,07,18,51,1.10
2018,12,07,18,52,1.10
2018,12,07,18,53,1.10
2018,12,07,18,54,1.00
2018,12,07,18,55,1.00
2018,12,07,18,56,1.00
2018,12,07,18,57,1.00
2018,12,07,18,58,1.00
2018,12,07,18,59,1.00
2018,12,07,19,00,1.00
2018,12,07,19,01,1.00
2018,12,07,19,02,1.00
2018,12,07,19,03,1.00
2018,12,07,19,04,1.00
2018,12,07,19,05,1.10
2018,12,07,19,06,1.10
2018,12,07,19,07,1.10
2018,12,07,19,08,1.10
2018,12,07,19,09,1.10
2018,12,07,19,10,1.10
2018,12,07,19,11,1.10
2018,12,07,19,12,1.20
2018,12,07,19,13,1.20
2018,12,07,19,14,1.20
2018,12,07,19,15,1.20
2018,12,07,19,16,1.20
2018,12,07,19,17,1.30
2018,12,07,19,18,1.30
2018,12,07,19,19,1.30
2018,12,07,19,20,1.30
2018,12,07,19,21,1.30
2018,12,07,19,22,1.30
2018,12,07,19,23,1.30
2018,12,07,19,24,1.40
2018,12,07,19,25,1.40
2018,12,07,19,26,1.50
2018,12,07,19,27,1.60
2018,12,07,19,28,1.70
2018,12,07,19,29,1.80
2018,12,07,19,30,1.90
2018,12,07,19,31,1.90
2018,12,07,19,32,1.90
2018,12,07,19,33,2.00
2018,12,07,19,34,2.00
2018,12,07,19,35,2.00
2018,12,07,19,36,2.00
2018,12,07,19,37,2.00
2018,12,07,19,38,2.00
2018,12,07,19,39,2.00
2018,12,07,19,40,2.00
2018,12,07,19,41,2.00
2018,12,07,19,42,1.90
2018,12,07,19,43,1.90
2018,12,07,19,44,1.90
2018,12,07,19,45,1.90
2018,12,07,19,46,1.90
2018,12,07,19,47,1.90
2018,12,07,19,48,1.90
2018,12,07,19,49,1.90
2018,12,07,19,50,1.90
2018,12,07,19,51,1.90
2018,12,07,19,52,1.90
2018,12,07,19,53,1.90
2018,12,07,19,54,1.90
2018,12,07,19,55,1.80
2018,12,07,19,56,1.80
2018,12,07,19,57,1.80
2018,12,07,19,58,1.80
2018,12,07,19,59,1.80
2018,12,07,20,00,1.80
2018,12,07,20,01,1.80
2018,12,07,20,02,1.90
2018,12,07,20,03,1.90
2018,12,07,20,04,2.00
2018,12,07,20,05,2.10
2018,12,07,20,06,2.10
2018,12,07,20,07,2.20
2018,12,07,20,08,2.20
2018,12,07,20,09,2.20
2018,12,07,20,10,2.20
2018,12,07,20,11,2.20
2018,12,07,20,12,2.20
2018,12,07,20,13,2.20
2018,12,07,20,14,2.10
2018,12,07,20,15,2.10
2018,12,07,20,16,2.10
2018,12,07,20,17,2.10
2018,12,07,20,18,2.10
2018,12,07,20,19,2.10
2018,12,07,20,20,2.10
2018,12,07,20,21,2.10
2018,12,07,20,22,2.00
2018,12,07,20,23,2.00
2018,12,07,20,24,2.00
2018,12,07,20,25,2.00
2018,12,07,20,26,2.00
2018,12,07,20,27,2.00
2018,12,07,20,28,2.00
2018,12,07,20,29,2.00
2018,12,07,20,30,2.00
2018,12,07,20,31,2.00
2018,12,07,20,32,2.00
2018,12,07,20,33,2.00
2018,12,07,20,34,2.00
2018,12,07,20,35,2.00
2018,12,07,20,36,2.00
2018,12,07,20,37,2.00
2018,12,07,20,38,2.00
2018,12,07,20,39,2.00
2018,12,07,20,40,2.10
2018,12,07,20,41,2.10
2018,12,07,20,42,2.10
2018,12,07,20,43,2.10
2018,12,07,20,44,2.10
2018,12,07,20,45,2.10
2018,12,07,20,46,2.10
2018,12,07,20,47,2.10
2018,12,07,20,48,2.20
2018,12,07,20,49,2.20
2018,12,07,20,50,2.20
2018,12,07,20,51,2.20
2018,12,07,20,52,2.20
2018,12,07,20,53,2.20
2018,12,07,20,54,2.20
2018,12,07,20,55,2.20
2018,12,07,20,56,2.20
2018,12,07,20,57,2.20
2018,12,07,20,58,2.30
2018,12,07,20,59,2.30
2018,12,07,21,00,2.30
2018,12,07,21,01,2.30
2018,12,07,21,02,2.30
2018,12,07,21,03,2.30
2018,12,07,21,04,2.30
2018,12,07,21,05,2.40
2018,12,07,21,06,2.40
2018,12,07,21,07,2.40
2018,12,07,21,08,2.40
2018,12,07,21,09,2.40
2018,12,07,21,10,2.50
2018,12,07,21,11,2.50
2018,12,07,21,12,2.60
2018,12,07,21,13,2.60
2018,12,07,21,14,2.60
2018,12,07,21,15,2.70
2018,12,07,21,16,2.70
2018,12,07,21,17,2.80
2018,12,07,21,18,2.80
2018,12,07,21,19,2.80
2018,12,07,21,20,2.90
2018,12,07,21,21,2.90
2018,12,07,21,22,3.00
2018,12,07,21,23,3.00
2018,12,07,21,24,3.10
2018,12,07,21,25,3.10
2018,12,07,21,26,3.10
2018,12,07,21,27,3.20
2018,12,07,21,28,3.20
2018,12,07,21,29,3.20
2018,12,07,21,30,3.20
2018,12,07,21,31,3.20
2018,12,07,21,32,3.20
2018,12,07,21,33,3.20
2018,12,07,21,34,3.30
2018,12,07,21,35,3.30
2018,12,07,21,36,3.30
2018,12,07,21,37,3.30
2018,12,07,21,38,3.20
2018,12,07,21,39,3.20
2018,12,07,21,40,3.20
2018,12,07,21,41,3.10
2018,12,07,21,42,3.10
2018,12,07,21,43,3.00
2018,12,07,21,44,3.00
2018,12,07,21,45,2.90
2018,12,07,21,46,2.90
2018,12,07,21,47,2.90
2018,12,07,21,48,2.80
2018,12,07,21,49,2.80
2018,12,07,21,50,2.80
2018,12,07,21,51,2.70
2018,12,07,21,52,2.70
2018,12,07,21,53,2.60
2018,12,07,21,54,2.60
2018,12,07,21,55,2.60
2018,12,07,21,56,2.50
2018,12,07,21,57,2.50
2018,12,07,21,58,2.40
2018,12,07,21,59,2.40
2018,12,07,22,00,2.40
2018,12,07,22,01,2.40
2018,12,07,22,02,2.30
2018,12,07,22,03,2.30
2018,12,07,22,04,2.30
2018,12,07,22,05,2.30